STARLINK-30103, 56290

Orbit data source: Space-Track

STARLINK-30103, 56290 is a payload satellite owned by SpaceX/Seattle (US) in LEO that was launched on Wed, 19 Apr 2023 UTC via an FALCON 9 launch vehicle from the Air Force Eastern Test Range (AFETR). Payload-class satellites include a variety of spacecraft equipped with specific instruments for various scientific and technological missions. These include communications satellites like Starlink; space stations such as the ISS; scientific satellites like the Hubble; Earth observation satellites from companies like Planet Labs, Umbra, and HawkEye 360; GPS; miniature CubeSats for education and research; and military/defense satellites.

Loading next visibility...
Identifier
56290, 2023-056E
Orbit
LEO
Country
Flag of USUS
Related business
Manufacturer
SpaceX/Seattle
Mission
Operational Commercial Communications
Bus & Motor
STARLINK V2M, Unknown motor
Mass
730 kg wet, ~700 kg dry
Launch date (UTC)
2023-04-19 (3 years ago)
Launch vehicle
FALCON 9
Launch site
Air Force Eastern Test Range (AFETR)
Object type
Payload
Rocket body
Debris
Shape & HBR
Box + 2 Pan, 17.7 m
Radar Cross Section
33.884 m², Large (>1 m²)

Expand to show TLE details & history
Last TLE update: 1 day ago

TLE from 1 day ago
0 STARLINK-30103
1 56290U 23056E   25348.24060685 -.00000616  00000-0 -30568-4 0  9992
2 56290  43.0067 314.2937 0001113 273.2904  86.7811 15.02507416147178
Epoch: 2025-12-14T05:46Z
TLE epoch observation values (Epoch: 2025-12-14T05:46:28.431Z)
Latitude
-0.00004°
Longitude
144.51884°
Altitude
558.903 km
Speed
7.584 km/s
True Right ascension
20h 57m 10s
True Declination
0° 00' 00"
Sunlit
Object was in daylight at epoch
Visualization orbit readout
Latitude
Unknown
Longitude
Unknown
Altitude
Unknown
Speed
Unknown
Apparent Right ascension
Unknown
Apparent Declination
Unknown
Sunlit
N/A
Visualization observer readout
Local Sidereal Time
13:26:14
Azimuth
Unknown
Elevation
Unknown
Doppler factor
Unknown
Orbital elements
Apogee altitude
561.863 km
Perigee altitude
560.318 km
Semi-major axis
6,939.227 km
Eccentricity
0.00011
Inclination
43.0067°
RAAN
314.2937°
Arg. of periapsis
273.2904°
True anomaly
86.79383°
Mean anomaly
86.7811°
Eccentric anomaly
86.78747°
Mean motion
3.75471 °/min
Orbital period
95.88 mins
BSTAR
-0.000030568
Loading maneuver chart data...
Computing Atmospheric mass density...
Loading historical data...
Loading historical data...
Loading historical data...
Loading historical data...
Loading historical data...
Loading historical data...
Loading historical data...

Documentation

Showing up to 5 results
|